Temp
13 16 17 18 17 16 15 14 13 13 11 10 10 9 10 10 9 9 9 9 9 9 9 9 9 9 9 9 8 8 8 7 7 8 6 6 6 7 7 7 7 7 7
9 12 13 15 16 16 15 14 14 13 12 11 11 10 10 9 9 9 9 9 9 9 9 9 9 9 9 8 8 8 8 8 8 8 8 6 6 6 6 7 7 7 7
1 5 9 10 12 14 15 15 14 12 12 11 10 9 8 8 8 8 9 9 9 9 9 9 9 9 9 9 9 9 9 9 8 8 9 7 7 6 6 6 6 7 7
-1 1 4 5 7 9 11 11 12 12 11 10 10 9 9 9 9 9 9 8 8 8 8 8 8 8 8 8 8 8 8 9 9 8 9 9 8 7 5 6 6 6 7
-4 -3 0 2 4 5 7 9 10 11 11 10 9 9 8 8 8 8 8 8 8 8 8 8 8 8 8 8 8 8 8 8 8 9 9 8 8 8 8 6 6 6 6
-5 -3 -2 1 2 3 4 5 6 8 9 9 9 8 8 7 7 7 7 7 7 7 7 7 7 7 7 7 7 7 7 7 7 7 8 8 8 8 8 8 7 6 6
-7 -6 -4 -2 -0 2 3 4 4 5 5 7 7 7 7 6 6 6 6 6 7 7 7 7 7 7 7 7 7 6 6 6 7 7 7 7 7 7 8 8 8 7 6
-8 -8 -6 -5 -4 -2 1 2 3 4 4 4 4 5 6 5 5 5 5 5 5 6 5 6 6 6 6 6 6 6 6 6 6 6 7 7 7 6 7 7 7 6 6
-10 -9 -7 -6 -5 -4 -3 -1 0 2 3 4 4 4 3 3 4 4 4 4 4 4 4 4 5 5 5 5 5 5 5 5 6 6 6 6 6 6 6 6 6 7 7
-11 -10 -9 -8 -7 -6 -5 -4 -3 -2 -1 1 2 2 3 3 3 2 2 3 3 3 4 4 3 4 4 4 4 4 4 4 4 5 5 5 5 5 5 5 5 6 6
-11 -11 -11 -10 -9 -8 -7 -6 -5 -4 -3 -3 -1 -0 1 1 2 2 2 2 2 2 2 3 3 3 3 3 3 3 3 3 3 3 3 4 4 4 4 4 4 4 4
-12 -12 -11 -10 -10 -10 -9 -8 -7 -7 -6 -6 -4 -3 -2 -1 -1 -0 0 1 1 1 1 1 1 1 1 1 1 1 1 1 2 2 2 2 2 2 3 3 3 3 4
-13 -12 -12 -12 -11 -11 -10 -10 -9 -9 -8 -7 -6 -5 -5 -4 -3 -3 -2 -2 -1 -1 -1 -1 -1 -1 -0 -1 -1 -1 -1 -1 -0 -0 -0 -0 0 0 1 1 1 1 2
-14 -14 -13 -13 -12 -12 -11 -11 -10 -10 -9 -9 -8 -7 -7 -6 -6 -5 -5 -4 -3 -3 -3 -3 -3 -2 -2 -2 -2 -2 -3 -3 -3 -3 -3 -2 -2 -2 -2 -2 -1 -1 -2
-14 -15 -14 -14 -14 -12 -12 -11 -11 -11 -10 -10 -10 -9 -9 -8 -8 -7 -6 -6 -6 -5 -4 -4 -4 -4 -4 -4 -4 -4 -4 -4 -4 -4 -4 -3 -3 -3 -3 -3 -3 -2 -2
-15 -15 -15 -14 -14 -14 -14 -13 -12 -12 -12 -11 -11 -11 -10 -10 -9 -8 -8 -7 -7 -7 -6 -6 -6 -5 -5 -6 -6 -6 -5 -5 -5 -5 -5 -5 -5 -4 -4 -4 -4 -4 -4
-15 -15 -15 -15 -15 -14 -14 -14 -13 -13 -12 -12 -12 -12 -11 -11 -10 -10 -10 -9 -9 -8 -8 -7 -7 -7 -7 -7 -7 -7 -6 -6 -6 -6 -6 -6 -6 -6 -6 -6 -6 -6 -5
-15 -15 -15 -15 -15 -15 -14 -14 -14 -14 -14 -13 -13 -12 -12 -11 -11 -11 -11 -10 -10 -10 -9 -9 -8 -8 -8 -8 -7 -7 -7 -7 -7 -7 -7 -7 -7 -7 -7 -7 -7 -7 -6
-16 -16 -15 -15 -15 -15 -15 -15 -14 -14 -14 -14 -13 -13 -13 -13 -12 -12 -11 -11 -11 -11 -10 -10 -10 -9 -9 -9 -8 -9 -8 -8 -8 -8 -8 -8 -8 -8 -8 -8 -8 -7 -7
-16 -16 -16 -16 -15 -15 -15 -15 -15 -15 -15 -15 -14 -14 -14 -14 -13 -13 -13 -13 -13 -12 -12 -12 -11 -11 -10 -10 -10 -10 -10 -9 -9 -8 -8 -8 -8 -8 -8 -8 -8 -8 -8
-17 -17 -17 -17 -16 -16 -17 -16 -16 -16 -17 -16 -16 -15 -15 -15 -14 -14 -13 -13 -13 -13 -13 -13 -12 -12 -12 -11 -11 -11 -11 -12 -11 -10 -10 -9 -9 -9 -9 -9 -9 -9 -9
-17 -17 -18 -17 -17 -17 -18 -17 -17 -17 -17 -16 -16 -16 -16 -15 -16 -16 -15 -15 -15 -14 -14 -14 -13 -13 -12 -12 -12 -12 -13 -12 -12 -12 -12 -11 -11 -11 -11 -11 -10 -10 -10
-18 -18 -19 -19 -18 -18 -18 -19 -18 -18 -18 -18 -17 -16 -16 -16 -16 -17 -17 -17 -16 -16 -16 -15 -15 -14 -13 -13 -13 -13 -13 -13 -12 -12 -12 -12 -12 -11 -12 -12 -11 -11 -10
-19 -20 -20 -20 -20 -19 -19 -19 -19 -19 -19 -19 -19 -18 -18 -18 -18 -17 -18 -17 -17 -17 -17 -16 -16 -16 -15 -15 -14 -14 -14 -13 -13 -13 -12 -12 -11 -11 -12 -12 -12 -11 -11
-21 -21 -21 -21 -21 -21 -21 -20 -20 -20 -20 -20 -20 -19 -19 -19 -19 -18 -18 -18 -18 -18 -18 -18 -17 -17 -16 -16 -15 -15 -14 -14 -14 -13 -13 -13 -13 -12 -12 -12 -12 -12 -12
-21 -21 -22 -22 -22 -22 -22 -21 -21 -21 -21 -21 -21 -21 -21 -20 -20 -20 -20 -19 -20 -19 -19 -18 -17 -17 -16 -15 -15 -14 -14 -13 -13 -13 -13 -13 -13 -13 -13 -13 -13 -13 -13
Height
1450 1450 1449 1450 1451 1454 1458 1462 1465 1470 1474 1477 1480 1484 1486 1490 1493 1495 1498 1500 1502 1504 1505 1507 1509 1510 1512 1515 1517 1518 1520 1522 1524 1525 1528 1530 1532 1533 1534 1535 1536 1537 1538
1443 1441 1441 1442 1444 1449 1453 1458 1461 1466 1470 1474 1478 1481 1485 1488 1491 1494 1495 1498 1500 1502 1504 1505 1507 1509 1511 1513 1515 1516 1517 1521 1523 1525 1527 1530 1533 1532 1533 1534 1535 1536 1537
1449 1441 1438 1440 1443 1446 1449 1453 1457 1462 1466 1470 1475 1478 1482 1486 1488 1489 1492 1494 1497 1499 1501 1503 1506 1508 1509 1511 1513 1515 1516 1517 1520 1523 1524 1527 1527 1530 1531 1532 1533 1534 1535
1455 1449 1441 1440 1442 1445 1450 1454 1458 1462 1465 1470 1473 1475 1478 1481 1483 1487 1490 1492 1494 1496 1499 1501 1503 1506 1508 1509 1511 1513 1515 1517 1517 1520 1521 1522 1524 1525 1529 1530 1531 1531 1532
1464 1456 1449 1446 1443 1444 1449 1454 1458 1461 1465 1468 1471 1474 1477 1480 1482 1485 1487 1489 1491 1494 1496 1498 1500 1503 1505 1507 1509 1510 1512 1515 1517 1517 1518 1520 1521 1523 1523 1523 1526 1528 1529
1470 1463 1456 1450 1446 1446 1447 1452 1458 1461 1464 1468 1470 1472 1475 1477 1479 1481 1483 1486 1488 1490 1492 1494 1497 1500 1502 1504 1505 1508 1510 1512 1514 1516 1517 1518 1519 1519 1521 1521 1522 1525 1526
1477 1469 1460 1455 1452 1450 1450 1452 1456 1459 1462 1466 1468 1471 1472 1474 1476 1478 1480 1482 1484 1486 1488 1490 1492 1495 1498 1500 1502 1504 1505 1507 1509 1511 1513 1514 1516 1518 1519 1519 1519 1520 1522
1483 1478 1472 1465 1461 1456 1454 1454 1455 1457 1459 1461 1464 1467 1469 1470 1472 1474 1475 1477 1479 1481 1484 1486 1488 1490 1492 1495 1497 1499 1501 1503 1504 1506 1508 1509 1511 1513 1515 1516 1517 1517 1518
1490 1484 1479 1473 1469 1462 1458 1457 1457 1457 1457 1459 1461 1462 1463 1464 1467 1470 1471 1472 1474 1476 1478 1480 1482 1484 1486 1489 1491 1493 1495 1497 1499 1501 1502 1504 1506 1507 1509 1511 1512 1513 1513
1496 1490 1483 1479 1475 1469 1466 1464 1461 1459 1458 1457 1457 1458 1459 1460 1461 1463 1465 1467 1470 1470 1472 1473 1476 1478 1480 1482 1484 1486 1488 1490 1492 1494 1496 1498 1500 1501 1503 1505 1507 1508 1510
1501 1495 1489 1484 1479 1474 1470 1468 1465 1463 1460 1458 1457 1456 1455 1455 1456 1458 1460 1461 1462 1464 1467 1468 1470 1472 1474 1476 1478 1480 1481 1483 1485 1488 1490 1492 1494 1496 1497 1499 1501 1503 1504
1505 1500 1494 1488 1482 1478 1474 1471 1469 1466 1463 1460 1458 1456 1455 1452 1452 1453 1455 1455 1456 1457 1459 1462 1464 1465 1467 1469 1471 1473 1475 1476 1478 1480 1483 1485 1486 1489 1491 1493 1495 1497 1499
1507 1501 1495 1489 1485 1481 1478 1474 1471 1468 1465 1462 1459 1456 1454 1452 1451 1451 1451 1452 1451 1452 1453 1455 1456 1458 1460 1462 1464 1466 1469 1470 1472 1474 1476 1478 1479 1481 1483 1486 1488 1490 1492
1510 1504 1498 1492 1488 1484 1479 1475 1472 1469 1466 1463 1460 1457 1455 1453 1451 1451 1450 1448 1449 1450 1450 1451 1452 1454 1455 1456 1458 1459 1461 1462 1464 1466 1469 1471 1472 1475 1476 1479 1481 1484 1486
1512 1506 1500 1494 1489 1483 1480 1477 1473 1470 1467 1464 1461 1458 1456 1454 1454 1452 1449 1447 1447 1446 1447 1448 1449 1449 1451 1452 1453 1454 1455 1457 1459 1461 1463 1465 1466 1468 1470 1471 1475 1478 1479
1511 1507 1502 1498 1492 1485 1483 1479 1476 1472 1467 1464 1462 1459 1457 1455 1452 1449 1448 1446 1445 1444 1444 1445 1444 1445 1447 1447 1449 1449 1449 1451 1452 1453 1455 1458 1460 1461 1462 1463 1464 1467 1470
1510 1504 1500 1499 1493 1487 1486 1483 1478 1473 1468 1465 1463 1460 1456 1453 1450 1450 1447 1445 1445 1443 1440 1442 1442 1443 1444 1445 1445 1443 1445 1446 1447 1447 1447 1450 1453 1455 1456 1458 1458 1458 1460
1505 1499 1499 1496 1489 1485 1483 1483 1480 1475 1470 1465 1460 1458 1455 1453 1450 1447 1444 1441 1443 1443 1439 1439 1438 1438 1440 1441 1442 1441 1442 1442 1443 1442 1442 1443 1445 1449 1452 1453 1454 1454 1455
1504 1501 1497 1490 1484 1483 1479 1477 1476 1471 1466 1462 1458 1455 1454 1453 1449 1445 1442 1440 1440 1439 1439 1438 1434 1435 1434 1436 1438 1437 1438 1438 1438 1437 1439 1440 1441 1443 1448 1448 1449 1450 1451
1503 1497 1492 1487 1483 1480 1476 1472 1471 1466 1461 1457 1454 1451 1450 1449 1446 1442 1438 1436 1436 1435 1436 1435 1432 1431 1430 1431 1433 1433 1432 1433 1434 1434 1433 1434 1436 1438 1441 1443 1444 1446 1447
1496 1492 1489 1485 1482 1479 1475 1471 1467 1465 1458 1454 1451 1451 1448 1445 1442 1438 1433 1431 1432 1432 1431 1430 1429 1428 1426 1426 1427 1428 1427 1427 1427 1426 1427 1427 1430 1432 1433 1436 1437 1438 1442
1492 1489 1484 1480 1477 1474 1470 1466 1463 1458 1450 1447 1444 1443 1440 1437 1435 1431 1428 1427 1428 1427 1427 1424 1423 1423 1422 1422 1422 1421 1421 1420 1422 1422 1421 1421 1424 1426 1425 1427 1429 1433 1436
1488 1485 1480 1476 1473 1470 1465 1459 1454 1448 1445 1442 1440 1438 1436 1435 1431 1425 1425 1426 1424 1421 1418 1416 1416 1415 1416 1415 1414 1413 1415 1418 1419 1416 1416 1416 1418 1419 1421 1423 1424 1425 1428
1483 1479 1474 1470 1465 1462 1458 1454 1449 1445 1441 1437 1435 1432 1428 1423 1420 1419 1418 1415 1413 1411 1410 1410 1409 1409 1409 1409 1409 1409 1409 1410 1410 1410 1410 1411 1413 1414 1416 1416 1418 1419 1421
1478 1474 1469 1464 1459 1456 1452 1449 1445 1440 1436 1431 1427 1423 1419 1416 1414 1412 1411 1409 1408 1408 1407 1406 1406 1405 1403 1404 1404 1404 1403 1403 1404 1404 1404 1405 1406 1406 1407 1409 1411 1413 1415
1473 1468 1463 1458 1453 1449 1445 1441 1437 1433 1428 1423 1420 1416 1413 1411 1408 1406 1403 1404 1402 1402 1402 1401 1401 1399 1398 1398 1398 1398 1398 1398 1398 1396 1395 1395 1397 1398 1400 1401 1403 1405 1408
Wind_Speed
29 25 29 31 30 33 32 32 32 32 31 31 31 30 29 25 23 22 20 19 18 18 18 18 19 20 20 19 19 19 19 21 20 22 19 16 14 13 13 12 11 11 11
26 17 16 22 31 31 33 33 33 32 32 31 30 30 28 26 23 22 22 20 20 19 20 20 21 21 22 22 22 22 24 23 23 21 19 13 12 14 13 13 12 11 11
37 27 16 11 21 29 32 33 33 31 31 30 30 30 29 27 26 25 24 22 21 21 21 22 22 23 24 24 24 24 24 25 26 22 11 8 7 17 15 15 14 13 12
37 31 25 15 7 20 27 31 30 29 30 29 29 30 31 31 30 26 23 23 22 22 23 23 24 24 25 25 25 25 25 25 27 27 21 11 8 12 12 18 17 16 15
38 37 32 24 10 2 11 21 25 27 29 28 27 28 29 28 27 25 24 23 23 23 24 25 25 26 26 26 27 28 27 27 27 28 28 20 13 13 11 15 22 21 19
38 33 30 27 20 9 6 9 15 21 25 26 25 25 26 27 27 26 25 24 24 24 25 26 27 27 27 28 29 29 30 30 29 30 28 28 24 21 18 16 21 23 21
39 39 37 34 29 22 11 5 7 12 17 21 22 23 23 24 25 25 25 24 25 26 26 27 28 29 29 29 30 32 33 33 33 32 33 32 28 27 22 22 18 24 24
37 37 35 33 31 27 22 12 3 6 12 16 20 21 21 22 23 24 25 24 24 23 24 26 28 29 29 30 31 32 33 35 35 35 35 33 33 32 30 27 25 23 25
34 35 34 33 31 29 26 22 14 5 5 11 16 20 22 22 22 22 23 23 22 23 23 25 27 29 30 31 31 32 33 34 35 35 35 35 34 33 32 31 29 28 25
31 34 33 32 30 28 25 21 20 17 11 3 7 13 18 20 20 20 20 21 21 23 23 24 25 27 28 30 31 32 32 33 33 33 34 34 33 33 32 32 31 30 30
28 30 30 29 28 26 25 23 21 19 16 12 8 1 6 12 17 19 21 20 19 18 19 20 22 24 26 28 30 31 32 33 32 32 32 33 33 32 32 32 31 31 31
25 28 28 28 28 28 26 25 23 21 20 18 14 9 6 2 2 8 13 17 20 22 22 23 23 24 25 27 29 29 30 31 31 31 31 31 31 31 31 31 31 30 31
26 29 28 29 28 28 27 24 23 22 20 18 16 14 12 10 8 7 7 7 8 15 20 22 23 24 25 26 26 27 28 28 28 29 30 29 30 30 30 30 30 30 30
27 28 28 28 27 25 25 24 23 21 20 18 17 15 14 14 13 11 10 11 12 13 11 13 16 19 22 25 27 29 31 31 30 31 30 29 28 27 26 26 25 26 24
25 27 28 28 28 26 25 23 22 21 20 19 17 16 14 12 11 11 10 9 9 10 13 16 17 16 17 18 20 22 24 27 30 33 36 37 38 37 35 32 33 36 38
25 26 25 25 25 27 27 25 22 21 21 19 18 16 15 13 12 11 10 9 9 8 10 12 13 14 15 15 17 19 21 23 25 26 28 30 32 34 35 34 33 32 32
25 27 26 24 23 22 23 23 21 19 18 17 17 17 16 15 14 13 12 11 11 10 8 10 10 12 13 14 10 18 21 20 23 24 24 26 28 28 28 27 26 26 27
27 28 26 25 25 24 21 21 17 16 16 15 14 15 16 16 15 14 14 13 14 14 13 12 12 12 13 15 15 16 18 19 19 17 18 19 19 20 20 22 24 21 19
26 26 25 26 26 24 23 21 20 19 18 17 16 17 18 19 17 15 14 13 14 13 14 16 15 16 16 16 17 18 18 17 17 18 19 18 18 17 16 14 18 22 23
25 25 24 25 23 23 23 22 23 24 23 22 22 21 21 22 21 18 16 15 15 15 15 15 14 16 18 19 19 18 19 22 22 22 21 21 22 22 20 20 18 16 19
27 25 24 23 22 22 21 24 24 22 23 25 25 25 23 23 23 22 19 18 18 18 18 18 17 17 16 16 17 19 18 19 20 22 25 25 26 27 24 19 21 25 22
29 27 27 26 26 23 25 28 27 28 30 30 29 27 26 24 23 22 20 19 19 19 20 20 21 20 19 19 19 17 16 16 19 20 21 20 20 20 20 19 21 19 17
29 28 27 28 26 28 29 28 30 31 29 29 28 26 25 24 23 21 21 22 21 22 22 23 23 22 20 20 19 19 17 17 19 22 22 21 20 20 22 21 19 19 22
29 28 27 28 34 31 30 30 29 29 29 30 28 27 26 23 22 22 22 24 24 23 23 22 22 19 17 16 15 16 17 21 21 22 21 20 22 23 23 21 21 22 23
27 25 32 34 31 31 30 28 27 27 28 28 28 28 27 26 26 24 24 23 22 21 22 23 23 24 25 22 20 19 21 19 18 20 25 28 30 28 26 25 24 24 26
29 31 29 30 30 29 30 29 27 27 27 29 29 28 26 26 24 24 26 22 20 20 22 23 24 26 25 24 23 22 22 23 24 27 28 26 26 30 32 32 31 31 30
Wind_Direction
322 306 278 261 246 235 231 226 224 220 217 215 218 220 222 222 223 223 223 223 222 219 215 212 210 208 208 205 201 193 190 183 184 174 166 166 172 180 184 188 192 195 198
357 339 301 273 247 237 230 225 224 221 219 221 224 226 228 227 228 228 226 223 223 221 219 216 212 209 207 205 205 202 190 191 186 183 167 159 176 183 186 187 189 193 193
8 12 10 308 254 238 231 226 224 220 221 224 224 226 225 227 227 226 226 225 223 222 221 218 214 212 211 214 214 212 211 200 193 192 181 169 195 192 199 199 200 199 200
20 28 33 30 285 245 233 228 227 224 224 225 227 231 232 229 231 232 232 230 228 225 222 219 217 217 219 218 222 220 219 216 206 199 204 203 199 187 197 209 208 208 206
16 25 36 41 57 170 238 235 230 227 227 228 233 237 237 238 242 240 235 235 234 230 226 224 222 221 222 223 224 225 224 223 224 220 216 219 219 217 212 208 212 211 211
19 30 39 47 55 79 153 206 236 233 229 232 238 242 245 245 244 243 242 240 238 236 233 230 227 226 226 225 226 226 230 230 230 232 234 236 237 235 225 225 218 216 217
18 26 32 37 41 50 69 140 199 225 229 237 242 248 251 251 252 253 252 250 247 244 241 238 235 232 230 228 227 229 231 233 235 235 239 242 245 246 247 241 235 215 219
20 25 29 32 36 43 50 62 109 221 231 233 234 242 254 256 257 257 255 254 253 253 252 248 243 239 236 234 232 232 234 236 239 241 242 244 243 244 244 245 243 226 224
15 20 24 28 29 36 41 43 47 52 235 240 240 240 239 240 251 259 257 254 253 253 252 251 248 245 243 240 238 238 238 239 240 242 244 243 242 242 243 243 244 243 235
14 20 23 24 25 29 32 37 41 44 48 63 242 244 244 248 249 248 250 257 261 257 252 249 249 248 247 246 244 243 243 243 243 244 244 244 243 242 242 242 240 239 240
11 17 20 23 24 25 26 26 26 28 32 36 43 30 238 241 246 248 249 250 245 248 256 254 253 253 252 250 249 247 245 245 246 246 245 245 244 243 241 239 238 237 239
8 15 16 16 19 21 23 23 20 19 19 20 14 8 6 8 248 241 247 243 239 236 236 242 251 255 255 252 250 250 248 247 246 245 245 244 242 242 241 239 238 239 241
5 8 10 13 13 13 15 18 18 17 13 10 8 5 1 349 332 316 303 297 272 256 249 246 244 242 245 247 248 249 251 249 248 247 245 243 242 241 241 240 239 238 235
2 2 5 6 6 7 8 8 8 9 11 9 4 1 1 0 354 339 315 301 294 290 284 271 264 262 259 257 256 253 249 245 244 243 243 242 243 244 242 243 243 241 240
357 358 359 359 358 0 0 360 1 359 360 360 0 2 358 350 341 335 336 329 305 285 273 268 266 266 268 270 269 266 264 261 258 256 254 252 248 245 243 243 249 255 253
352 351 353 353 353 355 352 351 351 352 353 353 349 349 345 343 339 334 322 319 312 302 291 281 271 263 258 258 259 261 258 258 258 257 256 256 254 253 253 253 252 250 247
341 344 344 343 345 348 344 341 342 342 344 343 342 343 344 342 340 332 326 316 302 288 281 276 269 262 256 249 245 253 253 260 256 254 254 254 254 254 251 247 248 248 245
337 337 333 331 336 336 333 329 331 334 334 337 338 336 335 331 329 327 325 321 311 304 290 270 259 251 242 239 238 257 255 245 247 245 241 242 244 246 246 239 227 223 223
328 325 325 325 327 328 326 323 321 325 327 326 325 328 329 324 323 322 321 318 309 306 298 289 279 266 252 245 244 250 245 237 234 234 234 231 227 226 225 242 241 233 231
326 325 324 323 322 322 321 317 318 320 318 317 318 318 316 313 314 314 313 310 307 304 298 293 286 278 271 261 254 249 254 249 242 238 234 231 234 237 241 238 237 252 253
327 325 322 320 320 319 316 316 318 316 314 312 311 309 308 305 303 304 303 301 297 292 291 289 288 285 280 270 263 255 253 256 256 256 254 251 250 244 233 238 246 242 245
324 325 322 319 319 318 316 315 313 310 311 309 309 308 307 305 304 302 300 296 292 289 286 284 281 279 279 277 273 266 262 265 267 267 269 263 253 246 242 239 236 241 246
321 322 319 316 316 316 318 314 315 314 312 309 307 305 301 298 298 297 293 288 287 288 287 287 287 286 285 283 278 275 269 261 257 262 268 275 273 260 246 241 237 235 232
321 320 316 314 315 316 314 312 313 311 309 307 306 306 305 306 300 296 293 292 291 290 287 288 289 291 289 287 286 283 273 260 253 247 243 242 242 248 252 251 241 233 237
322 316 311 312 311 314 314 314 313 310 308 306 305 306 306 304 301 296 294 291 287 287 294 294 293 292 289 285 283 281 282 280 277 271 259 250 248 246 242 242 243 242 239
311 314 318 317 317 318 318 318 317 314 310 307 307 306 305 302 301 302 299 290 286 282 277 274 272 276 277 279 277 273 268 264 266 264 260 258 253 248 249 248 249 249 246